User: anonymous   Login
Location: Albany
(35.0000°S, 118.0000°E)
Time: 20:02:32
(UTC-04:00)
Language:

Centaur D-1AR AC-48 - Orbit

View from above orbital plane
View from above orbital plane
View from above satellite
View from above satellite

Ground track
Ground track

The orbit data is extracted from the following two-line orbital elements,

1 10779U 78035B   15177.55446087 -.00000229  00000-0 -78373-4 0  9994
2 10779 021.8752 320.5132 7181546 287.2542 011.5423 02.22637546302603
Epoch (UTC): 26 June 2015 13:18:25
Eccentricity: 0.7181546
inclination: 21.8752°
perigee height: 604 km
apogee height: 36188 km
right ascension of ascending node: 320.5132°
argument of perigee: 287.2542°
revolutions per day: 2.22637546
mean anomaly at epoch: 11.5423°
orbit number at epoch: 30260

The dashed part of the orbit path shows where the satellite is in the earth's shadow,  

DLR